Location: Ahstedt
(52.2048°N, 10.1060°E)
Time: 00:05:34
(UTC+00:00)

Lacrosse 4 Rocket - Pass Details

Date: 18 January 2026
Orbit: 512 x 564 km, 68.0° (Epoch: 17 February)

Event Time Altitude Azimuth Distance (km) Brightness Sun altitude
Rises 04:58:08 0° 195° (SSW) 2,649 4.7 -20.9°
Reaches altitude 10° 05:00:24 10° 187° (S) 1,757 3.9 -20.5°
Maximum altitude 05:04:04 39° 118° (ESE) 784 2.6 -20.0°
Drops below altitude 10° 05:07:43 10° 49° (NE) 1,751 4.4 -19.4°
Sets 05:09:58 0° 41° (NE) 2,639 5.3 -19.1°
